| time (UTC) | temp F | wind direction | speed MPH | gust MPH | rain 1hr in | rain 24hr in | rain mn in | humidity % | barometer mb |
| 20260505003639 | 72 | 259 | 5.0 | 9.0 | 0.00 | 0.00 | 0.00 | 54 | 1013.7 |
| 20260505002959 | 0 | 259 | 6.0 | 5.0 | 0.00 | 0.00 | 0.00 | ||
| 20260505002105 | 0 | 259 | 5.0 | 8.0 | 0.00 | 0.00 | 0.00 | ||
| 20260505001210 | 0 | 260 | 5.0 | 6.0 | 0.00 | 0.00 | 0.00 | ||
| 20260505000100 | 74 | 259 | 7.0 | 12.0 | 0.00 | 0.00 | 0.00 | 51 | 1014.1 |
| 20260504235420 | 74 | 259 | 8.0 | 12.0 | 0.00 | 0.00 | 0.00 | 50 | 1014.2 |
| 20260504234740 | 0 | 259 | 8.0 | 9.0 | 0.00 | 0.00 | 0.00 | ||
| 20260504233744 | 0 | 259 | 7.0 | 6.0 | 0.00 | 0.00 | 0.00 | ||
| 20260504232820 | 75 | 259 | 7.0 | 12.0 | 0.00 | 0.00 | 0.00 | 49 | 1014.1 |
| 20260504232140 | 75 | 259 | 8.0 | 12.0 | 0.00 | 0.00 | 0.00 | 46 | 1014.2 |
| 20260504231500 | 0 | 260 | 10.0 | 9.0 | 0.00 | 0.00 | 0.00 | ||
| 20260504225209 | 0 | 260 | 10.0 | 10.0 | 0.00 | 0.00 | 0.00 | ||
| 20260504223814 | 0 | 259 | 7.0 | 6.0 | 0.00 | 0.00 | 0.00 | ||
| 20260504222850 | 0 | 259 | 6.0 | 8.0 | 0.00 | 0.00 | 0.00 | ||
| 20260504221957 | 77 | 259 | 9.0 | 18.0 | 0.00 | 0.00 | 0.00 | 40 | 1014.6 |
| 20260504221317 | 78 | 259 | 5.0 | 12.0 | 0.00 | 0.00 | 0.00 | 38 | 1014.6 |
| 20260504220637 | 0 | 259 | 7.0 | 4.0 | 0.00 | 0.00 | 0.00 | ||
| 20260504215313 | 78 | 259 | 6.0 | 15.0 | 0.00 | 0.00 | 0.00 | 40 | 1014.8 |
| 20260504214633 | 77 | 259 | 9.0 | 17.0 | 0.00 | 0.00 | 0.00 | 39 | 1014.9 |
| 20260504213953 | 78 | 259 | 11.0 | 17.0 | 0.00 | 0.00 | 0.00 | 40 | 1014.8 |
| 20260504213313 | 78 | 259 | 8.0 | 17.0 | 0.00 | 0.00 | 0.00 | 40 | 1014.8 |
| 20260504212633 | 78 | 258 | 7.0 | 13.0 | 0.00 | 0.00 | 0.00 | 38 | 1014.9 |
| 20260504211953 | 79 | 259 | 10.0 | 16.0 | 0.00 | 0.00 | 0.00 | 41 | 1014.9 |
| 20260504211313 | 0 | 258 | 5.0 | 11.0 | 0.00 | 0.00 | 0.00 | ||
| 20260504205704 | 78 | 258 | 10.0 | 15.0 | 0.00 | 0.00 | 0.00 | 41 | 1015.2 |
| 20260504205024 | 78 | 260 | 10.0 | 18.0 | 0.00 | 0.00 | 0.00 | 42 | 1015.3 |
| 20260504204344 | 0 | 258 | 8.0 | 9.0 | 0.00 | 0.00 | 0.00 | ||
| 20260504203450 | 0 | 259 | 8.0 | 8.0 | 0.00 | 0.00 | 0.00 | ||
| 20260504201744 | 0 | 259 | 11.0 | 6.0 | 0.00 | 0.00 | 0.00 | ||
| 20260504200636 | 0 | 259 | 7.0 | 4.0 | 0.00 | 0.00 | 0.00 | ||
| 20260504195741 | 79 | 260 | 8.0 | 13.0 | 0.00 | 0.00 | 0.00 | 40 | 1016.1 |
| 20260504195101 | 0 | 259 | 9.0 | 9.0 | 0.00 | 0.00 | 0.00 | ||
| 20260504194208 | 0 | 259 | 8.0 | 5.0 | 0.00 | 0.00 | 0.00 | ||
| 20260504193244 | 78 | 259 | 11.0 | 18.0 | 0.00 | 0.00 | 0.00 | 42 | 1016.4 |
| 20260504192604 | 78 | 260 | 7.0 | 16.0 | 0.00 | 0.00 | 0.00 | 42 | 1016.6 |
| 20260504191924 | 0 | 259 | 7.0 | 6.0 | 0.00 | 0.00 | 0.00 | ||
| 20260504191031 | 78 | 259 | 10.0 | 15.0 | 0.00 | 0.00 | 0.00 | 42 | 1016.7 |
| 20260504190351 | 78 | 259 | 6.0 | 11.0 | 0.00 | 0.00 | 0.00 | 42 | 1016.9 |
| 20260504185711 | 0 | 259 | 9.0 | 7.0 | 0.00 | 0.00 | 0.00 | ||
| 20260504183843 | 79 | 259 | 6.0 | 12.0 | 0.00 | 0.00 | 0.00 | 39 | 1016.9 |
| 20260504183203 | 78 | 259 | 8.0 | 18.0 | 0.00 | 0.00 | 0.00 | 42 | 1017.0 |
| 20260504182523 | 77 | 261 | 6.0 | 22.0 | 0.00 | 0.00 | 0.00 | 41 | 1017.2 |
| 20260504181843 | 77 | 260 | 12.0 | 20.0 | 0.00 | 0.00 | 0.00 | 43 | 1017.3 |
| 20260504181203 | 0 | 259 | 11.0 | 1.0 | 0.00 | 0.00 | 0.00 | ||
| 20260504180023 | 0 | 260 | 9.0 | 7.0 | 0.00 | 0.00 | 0.00 | ||
| 20260504174700 | 0 | 257 | 3.0 | 8.0 | 0.00 | 0.00 | 0.00 | ||
| 20260504173705 | 0 | 260 | 10.0 | 9.0 | 0.00 | 0.00 | 0.00 | ||
| 20260504172553 | 77 | 285 | 1.0 | 8.0 | 0.00 | 0.00 | 0.00 | 42 | 1017.7 |
| 20260504171913 | 0 | 262 | 7.0 | 4.0 | 0.00 | 0.00 | 0.00 | ||
| 20260504171019 | 0 | 267 | 6.0 | 10.0 | 0.00 | 0.00 | 0.00 | ||
| 20260504170125 | 0 | 259 | 11.0 | 10.0 | 0.00 | 0.00 | 0.00 | ||
| 20260504160123 | 75 | 258 | 6.0 | 17.0 | 0.00 | 0.00 | 0.00 | 43 | 1018.4 |
| 20260504151013 | 0 | 261 | 3.0 | 1.0 | 0.00 | 0.00 | 0.00 | ||
| 20260504140643 | 0 | 257 | 3.0 | 3.0 | 0.00 | 0.00 | 0.00 | ||
| 20260504130352 | 0 | 298 | 1.0 | 2.0 | 0.00 | 0.00 | 0.00 | ||
| 20260504110132 | 0 | 84 | 3.0 | 2.0 | 0.00 | 0.00 | 0.00 | ||
| 20260504100453 | 59 | 257 | 2.0 | 5.0 | 0.00 | 0.00 | 0.00 | 78 | 1017.8 |
| 20260504081921 | 61 | 260 | 5.0 | 7.0 | 0.00 | 0.00 | 0.00 | 70 | 1018.2 |
| 20260504081241 | 0 | 259 | 4.0 | 4.0 | 0.00 | 0.00 | 0.00 | ||
| 20260504080346 | 60 | 259 | 3.0 | 5.0 | 0.00 | 0.00 | 0.00 | 70 | 1018.2 |
| 20260504045645 | 63 | 260 | 3.0 | 6.0 | 0.00 | 0.00 | 0.00 | 68 | 1019.3 |
| 20260504045005 | 0 | 260 | 5.0 | 2.0 | 0.00 | 0.00 | 0.00 | ||
| 20260504043857 | 63 | 260 | 6.0 | 9.0 | 0.00 | 0.00 | 0.00 | 69 | 1019.6 |
| 20260504043217 | 63 | 260 | 6.0 | 10.0 | 0.00 | 0.00 | 0.00 | 68 | 1019.6 |
| 20260504042537 | 63 | 260 | 6.0 | 9.0 | 0.00 | 0.00 | 0.00 | 68 | 1019.7 |
| 20260504041857 | 0 | 260 | 4.0 | 4.0 | 0.00 | 0.00 | 0.00 | ||
| 20260504041003 | 0 | 260 | 4.0 | 4.0 | 0.00 | 0.00 | 0.00 | ||
| 20260504040007 | 0 | 259 | 3.0 | 4.0 | 0.00 | 0.00 | 0.00 | ||
| 20260504034901 | 64 | 259 | 4.0 | 9.0 | 0.00 | 0.00 | 0.00 | 70 | 1019.9 |
| 20260504034221 | 0 | 260 | 4.0 | 3.0 | 0.00 | 0.00 | 0.00 | ||
| 20260504033326 | 64 | 260 | 5.0 | 8.0 | 0.00 | 0.00 | 0.00 | 69 | 1019.8 |
| 20260504032646 | 64 | 260 | 5.0 | 8.0 | 0.00 | 0.00 | 0.00 | 69 | 1019.8 |
| 20260504032006 | 0 | 260 | 6.0 | 3.0 | 0.00 | 0.00 | 0.00 | ||
| 20260504030351 | 65 | 260 | 6.0 | 10.0 | 0.00 | 0.00 | 0.00 | 66 | 1020.0 |
| 20260504025711 | 0 | 261 | 7.0 | 5.0 | 0.00 | 0.00 | 0.00 | ||
| 20260504024529 | 0 | 259 | 6.0 | 6.0 | 0.00 | 0.00 | 0.00 | ||
| 20260504023420 | 0 | 260 | 5.0 | 2.0 | 0.00 | 0.00 | 0.00 | ||
| 20260504022527 | 0 | 260 | 4.0 | 4.0 | 0.00 | 0.00 | 0.00 | ||
| 20260504020704 | 0 | 259 | 3.0 | 4.0 | 0.00 | 0.00 | 0.00 | ||
| 20260504015553 | 0 | 260 | 4.0 | 4.0 | 0.00 | 0.00 | 0.00 | ||
| 20260504014659 | 68 | 259 | 4.0 | 5.0 | 0.00 | 0.00 | 0.00 | 55 | 1019.0 |
| 20260504014019 | 69 | 259 | 3.0 | 4.0 | 0.00 | 0.00 | 0.00 | 54 | 1018.9 |
| 20260504013339 | 0 | 260 | 2.0 | 2.0 | 0.00 | 0.00 | 0.00 | ||
| 20260504012444 | 0 | 259 | 4.0 | 4.0 | 0.00 | 0.00 | 0.00 | ||
| 20260504010300 | 0 | 260 | 6.0 | 5.0 | 0.00 | 0.00 | 0.00 | ||
| 20260504004935 | 0 | 259 | 4.0 | 3.0 | 0.00 | 0.00 | 0.00 |